SHU3150 EPWA-EPKK

Flight info

Callsign SHU3150
Flight time N/A
Altitude 20000
Route EVINA DCT KUKAM
Aircraft DH8D/M-SDE2E3FGRY/H

Departure

Time 2026-05-05 19:22
Airport Warsaw Chopin Airport (EPWA)

Arrival

Time N/A
Airport Kraków John Paul II International Airport (EPKK)
Time Latitude Longitude Altitude Speed Heading
2026-05-05 18:20 52.16816 20.97314 341 ft 0 kts 78°
2026-05-05 19:04 52.16816 20.97315 341 ft 0 kts 78°
2026-05-05 19:09 52.16815 20.97305 341 ft 3 kts 78°
2026-05-05 19:09 52.16811 20.97275 340 ft 4 kts 78°
2026-05-05 19:09 52.16805 20.97228 339 ft 3 kts 78°
2026-05-05 19:09 52.16801 20.97200 339 ft 5 kts 81°
2026-05-05 19:10 52.16804 20.97159 338 ft 3 kts 122°
2026-05-05 19:10 52.16819 20.97142 338 ft 4 kts 153°
2026-05-05 19:10 52.16816 20.97143 338 ft 0 kts 157°
2026-05-05 19:10 52.16814 20.97145 338 ft 0 kts 159°
2026-05-05 19:11 52.16812 20.97147 338 ft 0 kts 151°
2026-05-05 19:11 52.16811 20.97147 338 ft 0 kts 151°
2026-05-05 19:14 52.16803 20.97156 338 ft 1 kts 147°
2026-05-05 19:15 52.16800 20.97158 338 ft 0 kts 146°
2026-05-05 19:15 52.16785 20.97172 339 ft 5 kts 160°
2026-05-05 19:15 52.16754 20.97201 339 ft 5 kts 149°
2026-05-05 19:15 52.16711 20.97237 339 ft 5 kts 145°
2026-05-05 19:16 52.16689 20.97258 339 ft 5 kts 151°
2026-05-05 19:16 52.16657 20.97289 339 ft 5 kts 150°
2026-05-05 19:16 52.16622 20.97319 339 ft 5 kts 152°
2026-05-05 19:16 52.16605 20.97337 339 ft 1 kts 149°
2026-05-05 19:17 52.16578 20.97370 339 ft 7 kts 135°
2026-05-05 19:17 52.16560 20.97419 339 ft 6 kts 114°
2026-05-05 19:17 52.16553 20.97444 339 ft 3 kts 114°
2026-05-05 19:17 52.16536 20.97506 339 ft 8 kts 114°
2026-05-05 19:18 52.16509 20.97603 339 ft 2 kts 115°
2026-05-05 19:18 52.16506 20.97614 339 ft 3 kts 115°
2026-05-05 19:18 52.16487 20.97679 338 ft 3 kts 115°
2026-05-05 19:18 52.16478 20.97708 338 ft 3 kts 115°
2026-05-05 19:19 52.16459 20.97773 338 ft 9 kts 116°
2026-05-05 19:19 52.16442 20.97838 338 ft 3 kts 110°
2026-05-05 19:19 52.16435 20.97844 337 ft 2 kts 177°
2026-05-05 19:19 52.16401 20.97808 337 ft 7 kts 223°
2026-05-05 19:20 52.16353 20.97762 336 ft 6 kts 207°
2026-05-05 19:20 52.16312 20.97714 335 ft 0 kts 243°
2026-05-05 19:20 52.16309 20.97677 335 ft 6 kts 277°
2026-05-05 19:20 52.16320 20.97616 336 ft 0 kts 291°
2026-05-05 19:21 52.16323 20.97605 337 ft 6 kts 291°
2026-05-05 19:21 52.16423 20.97244 339 ft 70 kts 295°
2026-05-05 19:21 52.16746 20.96103 340 ft 155 kts 295°
2026-05-05 19:22 52.17277 20.94302 888 ft 184 kts 296°
2026-05-05 19:22 52.17864 20.92563 1877 ft 192 kts 297°
2026-05-05 19:22 52.18442 20.90481 2490 ft 218 kts 272°
2026-05-05 19:22 52.18421 20.88049 3387 ft 218 kts 255°
2026-05-05 19:23 52.17613 20.85973 4117 ft 223 kts 220°
2026-05-05 19:23 52.16167 20.85110 4874 ft 233 kts 186°
2026-05-05 19:23 52.14593 20.85831 5659 ft 246 kts 153°
2026-05-05 19:23 52.13279 20.88883 6713 ft 264 kts 109°